Location: Ciula Mare
(45.6000°N, 22.8167°E)
Time: 18:50:56
(UTC+00:00)

IRIDIUM 114 - Visible Passes

Search period start: 01 October 2023 00:00
Search period end: 11 October 2023 00:00
Orbit: 776 x 779 km, 86.4° (Epoch: 30 September)

Date Brightness Start Highest point End Pass type
(mag) Time Alt. Az. Time Alt. Az. Time Alt. Az.
01 Oct 4.8 18:44:56 10° N 18:48:47 49° NNE 18:48:47 49° NNE visible
01 Oct 7.0 20:27:20 10° NW 20:29:16 14° WNW 20:29:16 14° WNW visible
02 Oct 5.0 18:11:35 10° N 18:15:30 37° NE 18:15:30 37° NE visible
02 Oct 6.3 19:52:45 10° NNW 19:55:59 24° WNW 19:55:59 24° WNW visible
03 Oct 5.5 17:38:32 10° NNE 17:42:15 24° ENE 17:42:15 24° ENE visible
03 Oct 5.5 19:18:44 10° NNW 19:22:44 40° NW 19:22:44 40° NW visible
04 Oct 6.0 17:06:08 10° NE 17:08:51 14° ENE 17:09:01 14° ENE visible
04 Oct 4.6 18:45:01 10° N 18:49:30 65° NNW 18:49:30 65° NNW visible
04 Oct 7.2 20:29:14 10° WNW 20:29:59 10° WNW 20:29:59 10° WNW visible
05 Oct 4.4 18:11:31 10° N 18:16:19 57° ENE 18:16:19 57° ENE visible
05 Oct 6.7 19:53:22 10° NW 19:56:48 19° WNW 19:56:48 19° WNW visible
06 Oct 4.9 17:38:17 10° NNE 17:43:00 33° ENE 17:43:09 33° E visible
06 Oct 5.8 19:19:04 10° NNW 19:23:38 32° W 19:23:38 32° W visible
07 Oct 5.6 17:05:25 10° NNE 17:09:11 20° ENE 17:10:02 19° E visible
07 Oct 4.8 18:45:10 10° N 18:50:18 57° W 18:50:32 56° W visible
08 Oct 6.1 16:33:43 10° NE 16:35:12 11° ENE 16:36:41 10° E visible
08 Oct 4.2 18:11:32 10° N 18:16:48 82° E 18:17:28 68° SSE visible
08 Oct 7.0 19:54:21 10° NW 19:56:45 13° WNW 19:57:58 12° W visible
09 Oct 4.5 17:38:08 10° N 17:43:10 46° E 17:44:29 38° ESE visible
09 Oct 6.4 19:19:31 10° NNW 19:23:34 23° W 19:24:59 21° WSW visible
10 Oct 5.2 17:05:01 10° NNE 17:09:26 27° ENE 17:11:35 20° ESE visible
10 Oct 5.5 18:45:25 10° NNW 18:50:16 40° W 18:52:06 30° SW visible
